Notices

What's New in latest Release from April 7th, 2021:

- Updated Glossary, including Speed of Maximum Gust, and Total Hourly Precipitation

- Updated national and regional climate services offices contacts and prices information

- Addition of station inventory lists for 1981-2010, 1971-2000, and 1961-1990 Normals.

If you haven't already, please take our survey and provide feedback about our website: https://eccc.sondage-survey.ca/f/LanguageSelection.aspx?s=442ca660-fcf1-47c0-95a9-59707d6fd709

Hourly Data Report for April 12, 2021

WIARTON A
ONTARIO
Current Station Operator: NAVCAN

44°44'39.000" N
81°06'31.000" W
221.90 m
6119499
71633
YVV

Download Data

Hourly Data (April 2021)
Hourly Data Report for April 12, 2021
TIME
LST
Temp Definition
°C
Dew Point Definition
°C
Rel Hum Definition
%
Precip. Amount Definition
mm

Wind Dir Definition
10's deg

Wind Spd Definition
km/h
Visibility Definition
km
Stn Press Definition
kPa
Hmdx Definition


Wind Chill Definition


Weather Definition


00:00 12.4 11.6 95   10 12 16.1 97.54     Rain
01:00 12.4 11.2 93   9 17 19.3 97.50     Rain
02:00 12.0 11.0 93   9 20 16.1 97.51     Rain
03:00 11.0 10.4 96   7 16 6.4 97.52     Rain,Fog
04:00 10.6 10.1 97   8 22 4.8 97.53     Rain,Fog
05:00 10.0 9.6 97   7 21 4.8 97.54     Rain,Fog
06:00 9.1 8.8 97   7 25 6.4 97.59     Rain,Fog
07:00 9.1 8.8 98   7 18 4.8 97.63     Rain,Fog
08:00 8.9 8.5 97   8 16 9.7 97.67     Rain,Fog
09:00 9.1 8.6 97   9 18 4.8 97.73     Drizzle,Fog
10:00 9.2 8.6 97   10 22 4.8 97.79     Drizzle,Fog
11:00 9.2 8.6 96   10 22 4.8 97.85     Drizzle,Fog
12:00 9.4 8.8 96   9 14 6.4 97.93     Rain,Fog
13:00 10.0 9.2 95   8 22 9.7 97.97     Rain,Fog
14:00 10.2 9.1 93   9 24 24.1 98.00     LegendNANA
15:00 10.1 8.9 92   11 27 24.1 98.04     LegendNANA
16:00 10.3 8.9 91   10 25 24.1 98.08     Mostly Cloudy
17:00 10.2 8.6 90   10 22 24.1 98.18     LegendNANA
18:00 9.8 8.2 90   9 11 24.1 98.32     LegendNANA
19:00 9.3 8.0 91   11 18 24.1 98.40     Cloudy
20:00 9.2 8.0 92   11 15 16.1 98.50     LegendNANA
21:00 9.3 8.2 93   11 11 24.1 98.58     LegendNANA
22:00 9.3 8.0 91   10 12 24.1 98.59     Cloudy
23:00 8.0 7.2 95   15 8 24.1 98.63     LegendNANA

Notes on Data Quality.

Legend

  • E = Estimated
  • M = Missing
  • NA = Not Available*
  • [empty] = Indicates an unobserved value
Date modified: